Location: Chmeli�t?
(49.8978°N, 15.0526°E)
Time: 01:12:35
(UTC+00:00)

STARLINK-75 - Pass Details

Date: 07 June 2020
Orbit: 360 x 370 km, 53.0° (Epoch: 12 July)

Event Time Altitude Azimuth Distance (km) Brightness Sun altitude
Exits shadow 01:54:51 - 273° (W) 2,295 6.4 -7.5°
Rises 01:54:54 0° 273° (W) 2,272 6.4 -7.5°
Reaches altitude 10° 01:57:01 10° 279° (W) 1,415 5.4 -7.3°
Maximum altitude 02:00:05 46° 355° (N) 528 3.9 -7.0°
Drops below altitude 10° 02:03:07 10° 71° (ENE) 1,403 6.8 -6.6°
Sets 02:05:13 0° 77° (ENE) 2,251 7.8 -6.4°
